Year,Month,Day,Hour,Minute,Value (Times are PST for windspeed in km/hr)
2014,10,25,00,00,12.20
2014,10,25,00,01,9.00
2014,10,25,00,02,11.40
2014,10,25,00,03,10.60
2014,10,25,00,04,12.90
2014,10,25,00,05,9.00
2014,10,25,00,06,5.10
2014,10,25,00,07,9.20
2014,10,25,00,08,6.40
2014,10,25,00,09,9.70
2014,10,25,00,10,10.50
2014,10,25,00,11,5.90
2014,10,25,00,12,8.30
2014,10,25,00,13,6.60
2014,10,25,00,14,3.70
2014,10,25,00,15,5.80
2014,10,25,00,16,8.40
2014,10,25,00,17,8.30
2014,10,25,00,18,8.00
2014,10,25,00,19,9.80
2014,10,25,00,20,10.10
2014,10,25,00,21,8.60
2014,10,25,00,22,7.50
2014,10,25,00,23,10.50
2014,10,25,00,24,7.60
2014,10,25,00,25,5.40
2014,10,25,00,26,10.40
2014,10,25,00,27,7.30
2014,10,25,00,28,9.10
2014,10,25,00,29,7.90
2014,10,25,00,30,11.60
2014,10,25,00,31,8.50
2014,10,25,00,32,7.80
2014,10,25,00,33,6.40
2014,10,25,00,34,6.30
2014,10,25,00,35,6.10
2014,10,25,00,36,6.40
2014,10,25,00,37,6.70
2014,10,25,00,38,12.10
2014,10,25,00,39,11.00
2014,10,25,00,40,6.80
2014,10,25,00,41,7.00
2014,10,25,00,42,5.20
2014,10,25,00,43,7.40
2014,10,25,00,44,8.50
2014,10,25,00,45,4.90
2014,10,25,00,46,3.50
2014,10,25,00,47,6.20
2014,10,25,00,48,7.70
2014,10,25,00,49,5.70
2014,10,25,00,50,5.70
2014,10,25,00,51,5.40
2014,10,25,00,52,3.40
2014,10,25,00,53,5.80
2014,10,25,00,54,3.70
2014,10,25,00,55,3.40
2014,10,25,00,56,1.70
2014,10,25,00,57,1.20
2014,10,25,00,58,1.40
2014,10,25,00,59,3.00
2014,10,25,01,00,4.70
2014,10,25,01,01,2.80
2014,10,25,01,02,0.50
2014,10,25,01,03,1.70
2014,10,25,01,04,2.20
2014,10,25,01,05,1.70
2014,10,25,01,06,0.90
2014,10,25,01,07,2.70
2014,10,25,01,08,0.20
2014,10,25,01,09,0.10
2014,10,25,01,10,3.30
2014,10,25,01,11,6.50
2014,10,25,01,12,5.60
2014,10,25,01,13,2.10
2014,10,25,01,14,3.10
2014,10,25,01,15,5.90
2014,10,25,01,16,3.10
2014,10,25,01,17,1.20
2014,10,25,01,18,2.10
2014,10,25,01,19,2.00
2014,10,25,01,20,2.70
2014,10,25,01,21,0.30
2014,10,25,01,22,1.90
2014,10,25,01,23,0.10
2014,10,25,01,24,0.40
2014,10,25,01,25,0.00
2014,10,25,01,26,0.10
2014,10,25,01,27,0.10
2014,10,25,01,28,1.00
2014,10,25,01,29,0.20
2014,10,25,01,30,0.00
2014,10,25,01,31,0.00
2014,10,25,01,32,0.30
2014,10,25,01,33,0.40
2014,10,25,01,34,5.10
2014,10,25,01,35,5.20
2014,10,25,01,36,3.00
2014,10,25,01,37,2.70
2014,10,25,01,38,3.10
2014,10,25,01,39,1.90
2014,10,25,01,40,3.10
2014,10,25,01,41,2.00
2014,10,25,01,42,2.80
2014,10,25,01,43,2.70
2014,10,25,01,44,4.40
2014,10,25,01,45,4.10
2014,10,25,01,46,1.80
2014,10,25,01,47,0.70
2014,10,25,01,48,2.10
2014,10,25,01,49,1.80
2014,10,25,01,50,1.40
2014,10,25,01,51,2.60
2014,10,25,01,52,1.30
2014,10,25,01,53,2.30
2014,10,25,01,54,2.50
2014,10,25,01,55,1.20
2014,10,25,01,56,3.80
2014,10,25,01,57,6.40
2014,10,25,01,58,4.20
2014,10,25,01,59,5.70
2014,10,25,02,00,6.00
2014,10,25,02,01,8.00
2014,10,25,02,02,3.70
2014,10,25,02,03,2.70
2014,10,25,02,04,5.40
2014,10,25,02,05,4.80
2014,10,25,02,06,6.50
2014,10,25,02,07,5.10
2014,10,25,02,08,5.10
2014,10,25,02,09,3.50
2014,10,25,02,10,0.20
2014,10,25,02,11,2.80
2014,10,25,02,12,2.00
2014,10,25,02,13,2.50
2014,10,25,02,14,3.30
2014,10,25,02,15,2.00
2014,10,25,02,16,5.10
2014,10,25,02,17,7.00
2014,10,25,02,18,5.70
2014,10,25,02,19,2.60
2014,10,25,02,20,0.10
2014,10,25,02,21,0.10
2014,10,25,02,22,0.00
2014,10,25,02,23,0.10
2014,10,25,02,24,0.00
2014,10,25,02,25,0.00
2014,10,25,02,26,1.70
2014,10,25,02,27,1.80
2014,10,25,02,28,0.00
2014,10,25,02,29,0.20
2014,10,25,02,30,0.00
2014,10,25,02,31,0.00
2014,10,25,02,32,0.10
2014,10,25,02,33,0.80
2014,10,25,02,34,0.10
2014,10,25,02,35,0.10
2014,10,25,02,36,0.30
2014,10,25,02,37,0.20
2014,10,25,02,38,1.50
2014,10,25,02,39,1.50
2014,10,25,02,40,2.10
2014,10,25,02,41,0.50
2014,10,25,02,42,0.90
2014,10,25,02,43,0.50
2014,10,25,02,44,1.00
2014,10,25,02,45,3.80
2014,10,25,02,46,4.60
2014,10,25,02,47,2.80
2014,10,25,02,48,2.90
2014,10,25,02,49,5.10
2014,10,25,02,50,7.60
2014,10,25,02,51,4.20
2014,10,25,02,52,0.30
2014,10,25,02,53,0.10
2014,10,25,02,54,0.20
2014,10,25,02,55,1.40
2014,10,25,02,56,0.50
2014,10,25,02,57,3.10
2014,10,25,02,58,1.90
2014,10,25,02,59,4.70
2014,10,25,03,00,1.40
2014,10,25,03,01,0.10
2014,10,25,03,02,1.40
2014,10,25,03,03,1.20
2014,10,25,03,04,2.90
2014,10,25,03,05,0.00
2014,10,25,03,06,3.20
2014,10,25,03,07,4.80
2014,10,25,03,08,3.40
2014,10,25,03,09,5.30
2014,10,25,03,10,7.30
2014,10,25,03,11,5.60
2014,10,25,03,12,5.40
2014,10,25,03,13,3.10
2014,10,25,03,14,2.10
2014,10,25,03,15,3.90
2014,10,25,03,16,3.30
2014,10,25,03,17,2.80
2014,10,25,03,18,5.20
2014,10,25,03,19,1.50
2014,10,25,03,20,4.00
2014,10,25,03,21,1.10
2014,10,25,03,22,0.40
2014,10,25,03,23,1.80
2014,10,25,03,24,2.30
2014,10,25,03,25,1.00
2014,10,25,03,26,4.10
2014,10,25,03,27,2.60
2014,10,25,03,28,1.40
2014,10,25,03,29,4.00
2014,10,25,03,30,1.20
2014,10,25,03,31,0.60
2014,10,25,03,32,0.70
2014,10,25,03,33,1.00
2014,10,25,03,34,1.10
2014,10,25,03,35,0.10
2014,10,25,03,36,0.10
2014,10,25,03,37,0.50
2014,10,25,03,38,0.40
2014,10,25,03,39,1.30
2014,10,25,03,40,1.00
2014,10,25,03,41,1.70
2014,10,25,03,42,0.90
2014,10,25,03,43,0.20
2014,10,25,03,44,1.70
2014,10,25,03,45,1.20
2014,10,25,03,46,3.10
2014,10,25,03,47,2.90
2014,10,25,03,48,2.50
2014,10,25,03,49,1.80
2014,10,25,03,50,1.70
2014,10,25,03,51,0.00
2014,10,25,03,52,1.30
2014,10,25,03,53,2.70
2014,10,25,03,54,1.80
2014,10,25,03,55,0.80
2014,10,25,03,56,1.80
2014,10,25,03,57,0.70
2014,10,25,03,58,1.20
2014,10,25,03,59,3.10
2014,10,25,04,00,1.50
2014,10,25,04,01,0.90
2014,10,25,04,02,3.40
2014,10,25,04,03,2.90
2014,10,25,04,04,2.30
2014,10,25,04,05,3.00
2014,10,25,04,06,4.40
2014,10,25,04,07,4.30
2014,10,25,04,08,1.80
2014,10,25,04,09,4.20
2014,10,25,04,10,2.70
2014,10,25,04,11,0.60
2014,10,25,04,12,1.70
2014,10,25,04,13,4.90
2014,10,25,04,14,4.00
2014,10,25,04,15,0.80
2014,10,25,04,16,2.40
2014,10,25,04,17,2.70
2014,10,25,04,18,4.70
2014,10,25,04,19,9.70
2014,10,25,04,20,6.70
2014,10,25,04,21,2.10
2014,10,25,04,22,1.30
2014,10,25,04,23,1.80
2014,10,25,04,24,3.40
2014,10,25,04,25,0.80
2014,10,25,04,26,0.10
2014,10,25,04,27,1.50
2014,10,25,04,28,5.10
2014,10,25,04,29,2.80
2014,10,25,04,30,2.80
2014,10,25,04,31,2.30
2014,10,25,04,32,7.20
2014,10,25,04,33,3.50
2014,10,25,04,34,2.10
2014,10,25,04,35,3.10
2014,10,25,04,36,1.00
2014,10,25,04,37,0.10
2014,10,25,04,38,0.60
2014,10,25,04,39,2.30
2014,10,25,04,40,5.10
2014,10,25,04,41,1.80
2014,10,25,04,42,1.40
2014,10,25,04,43,0.90
2014,10,25,04,44,1.20
2014,10,25,04,45,2.50
2014,10,25,04,46,6.80
2014,10,25,04,47,4.10
2014,10,25,04,48,2.60
2014,10,25,04,49,5.40
2014,10,25,04,50,7.30
2014,10,25,04,51,5.20
2014,10,25,04,52,7.20
2014,10,25,04,53,2.20
2014,10,25,04,54,0.20
2014,10,25,04,55,6.00
2014,10,25,04,56,7.60
2014,10,25,04,57,6.60
2014,10,25,04,58,11.30
2014,10,25,04,59,12.30
2014,10,25,05,00,6.80
2014,10,25,05,01,5.60
2014,10,25,05,02,4.00
2014,10,25,05,03,3.20
2014,10,25,05,04,3.20
2014,10,25,05,05,3.20
2014,10,25,05,06,3.20
2014,10,25,05,07,3.20
2014,10,25,05,08,3.20
2014,10,25,05,09,3.20
2014,10,25,05,10,3.20
2014,10,25,05,11,3.20
2014,10,25,05,12,3.20
2014,10,25,05,13,3.20
2014,10,25,05,46,10.00
2014,10,25,05,47,8.30
2014,10,25,05,48,11.20
2014,10,25,05,49,12.00
2014,10,25,05,50,7.50
2014,10,25,05,51,10.50
2014,10,25,05,52,13.10
2014,10,25,05,53,8.60
2014,10,25,05,54,11.90
2014,10,25,05,55,9.00
2014,10,25,05,56,7.60
2014,10,25,05,57,8.20
2014,10,25,05,58,7.40
2014,10,25,05,59,7.40
2014,10,25,06,00,7.70
2014,10,25,06,01,8.90
2014,10,25,06,02,11.00
2014,10,25,06,03,8.00
2014,10,25,06,04,11.30
2014,10,25,06,05,8.00
2014,10,25,06,06,8.40
2014,10,25,06,07,12.00
2014,10,25,06,08,6.70
2014,10,25,06,09,11.20
2014,10,25,06,10,9.30
2014,10,25,06,11,8.70
2014,10,25,06,12,10.30
2014,10,25,06,13,13.00
2014,10,25,06,14,9.30
2014,10,25,06,15,9.70
2014,10,25,06,16,12.20
2014,10,25,06,17,10.10
2014,10,25,06,18,8.00
2014,10,25,06,19,9.40
2014,10,25,06,20,7.20
2014,10,25,06,21,8.50
2014,10,25,06,22,4.80
2014,10,25,06,23,8.40
2014,10,25,06,24,16.10
2014,10,25,06,25,12.10
2014,10,25,06,26,16.50
2014,10,25,06,27,12.00
2014,10,25,06,28,14.20
2014,10,25,06,29,14.00
2014,10,25,06,30,14.30
2014,10,25,06,31,15.90
2014,10,25,06,32,10.40
2014,10,25,06,33,13.10
2014,10,25,06,34,9.30
2014,10,25,06,35,8.60
2014,10,25,06,36,11.20
2014,10,25,06,37,8.70
2014,10,25,06,38,11.00
2014,10,25,06,39,13.00
2014,10,25,06,40,14.30
2014,10,25,06,41,13.90
2014,10,25,06,42,14.20
2014,10,25,06,43,20.90
2014,10,25,06,44,7.70
2014,10,25,06,45,7.20
2014,10,25,06,46,6.30
2014,10,25,06,47,5.90
2014,10,25,06,48,10.60
2014,10,25,06,49,12.30
2014,10,25,06,50,13.00
2014,10,25,06,51,11.70
2014,10,25,06,52,11.30
2014,10,25,06,53,12.90
2014,10,25,06,54,12.50
2014,10,25,06,55,10.90
2014,10,25,06,56,12.50
2014,10,25,06,57,11.10
2014,10,25,06,58,13.40
2014,10,25,06,59,11.20
2014,10,25,07,00,8.50
2014,10,25,07,01,10.80
2014,10,25,07,02,11.50
2014,10,25,07,03,11.90
2014,10,25,07,04,7.20
2014,10,25,07,05,6.80
2014,10,25,07,06,6.10
2014,10,25,07,07,10.60
2014,10,25,07,08,9.80
2014,10,25,07,09,12.10
2014,10,25,07,10,10.70
2014,10,25,07,11,13.30
2014,10,25,07,12,10.80
2014,10,25,07,13,11.00
2014,10,25,07,14,10.20
2014,10,25,07,15,12.00
2014,10,25,07,16,14.20
2014,10,25,07,17,13.30
2014,10,25,07,18,10.30
2014,10,25,07,19,12.80
2014,10,25,07,20,12.30
2014,10,25,07,21,8.10
2014,10,25,07,22,12.10
2014,10,25,07,23,9.10
2014,10,25,07,24,10.70
2014,10,25,07,25,9.20
2014,10,25,07,26,6.10
2014,10,25,07,27,13.70
2014,10,25,07,28,13.40
2014,10,25,07,29,6.70
2014,10,25,07,30,12.10
2014,10,25,07,31,7.40
2014,10,25,07,32,6.40
2014,10,25,07,33,7.60
2014,10,25,07,34,9.50
2014,10,25,07,35,6.70
2014,10,25,07,36,15.60
2014,10,25,07,37,9.70
2014,10,25,07,38,8.20
2014,10,25,07,39,8.70
2014,10,25,07,40,8.00
2014,10,25,07,41,11.90
2014,10,25,07,42,8.60
2014,10,25,07,43,10.60
2014,10,25,07,44,10.00
2014,10,25,07,45,11.10
2014,10,25,07,46,10.60
2014,10,25,07,47,15.00
2014,10,25,07,48,7.80
2014,10,25,07,49,7.70
2014,10,25,07,50,12.40
2014,10,25,07,51,10.10
2014,10,25,07,52,15.60
2014,10,25,07,53,6.10
2014,10,25,07,54,9.70
2014,10,25,07,55,9.20
2014,10,25,07,56,10.70
2014,10,25,07,57,12.20
2014,10,25,07,58,8.80
2014,10,25,07,59,9.90
2014,10,25,08,00,10.60
2014,10,25,08,01,9.70
2014,10,25,08,02,8.40
2014,10,25,08,03,8.40
2014,10,25,08,04,9.70
2014,10,25,08,05,10.50
2014,10,25,08,06,12.20
2014,10,25,08,07,12.90
2014,10,25,08,08,12.00
2014,10,25,08,09,13.90
2014,10,25,08,10,12.40
2014,10,25,08,11,11.70
2014,10,25,08,12,12.90
2014,10,25,08,13,11.20
2014,10,25,08,14,9.70
2014,10,25,08,15,10.70
2014,10,25,08,16,8.10
2014,10,25,08,17,9.10
2014,10,25,08,18,10.30
2014,10,25,08,19,9.70
2014,10,25,08,20,7.50
2014,10,25,08,21,10.70
2014,10,25,08,22,9.20
2014,10,25,08,23,10.40
2014,10,25,08,24,11.10
2014,10,25,08,25,15.00
2014,10,25,08,26,12.80
2014,10,25,08,27,7.80
2014,10,25,08,28,12.20
2014,10,25,08,29,9.80
2014,10,25,08,30,10.50
2014,10,25,08,31,10.40
2014,10,25,08,32,10.20
2014,10,25,08,33,11.40
2014,10,25,08,34,6.40
2014,10,25,08,35,8.00
2014,10,25,08,36,14.30
2014,10,25,08,37,11.40
2014,10,25,08,38,11.00
2014,10,25,08,39,16.80
2014,10,25,08,40,9.60
2014,10,25,08,41,10.90
2014,10,25,08,42,8.30
2014,10,25,08,43,9.20
2014,10,25,08,44,10.60
2014,10,25,08,45,9.00
2014,10,25,08,46,12.20
2014,10,25,08,47,13.50
2014,10,25,08,48,10.70
2014,10,25,08,49,5.40
2014,10,25,08,50,6.30
2014,10,25,08,51,4.70
2014,10,25,08,52,8.50
2014,10,25,08,53,16.30
2014,10,25,08,54,13.90
2014,10,25,08,55,7.40
2014,10,25,08,56,7.20
2014,10,25,08,57,7.70
2014,10,25,08,58,6.40
2014,10,25,08,59,6.70
2014,10,25,09,00,6.50
2014,10,25,09,01,5.80
2014,10,25,09,02,5.70
2014,10,25,09,03,4.30
2014,10,25,09,04,6.90
2014,10,25,09,05,5.70
2014,10,25,09,06,6.00
2014,10,25,09,07,3.80
2014,10,25,09,08,4.10
2014,10,25,09,09,3.50
2014,10,25,09,10,2.60
2014,10,25,09,11,3.50
2014,10,25,09,12,2.50
2014,10,25,09,13,13.90
2014,10,25,09,14,10.50
2014,10,25,09,15,13.00
2014,10,25,09,16,12.60
2014,10,25,09,17,9.30
2014,10,25,09,18,16.70
2014,10,25,09,19,12.00
2014,10,25,09,20,8.10
2014,10,25,09,21,5.70
2014,10,25,09,22,9.60
2014,10,25,09,23,10.30
2014,10,25,09,24,9.70
2014,10,25,09,25,8.40
2014,10,25,09,26,11.30
2014,10,25,09,27,12.50
2014,10,25,09,28,11.80
2014,10,25,09,29,13.70
2014,10,25,09,30,11.40
2014,10,25,09,31,11.30
2014,10,25,09,32,10.60
2014,10,25,09,33,7.70
2014,10,25,09,34,8.30
2014,10,25,09,35,7.70
2014,10,25,09,36,6.90
2014,10,25,09,37,11.50
2014,10,25,09,38,3.40
2014,10,25,09,39,4.40
2014,10,25,09,40,8.90
2014,10,25,09,41,6.40
2014,10,25,09,42,5.10
2014,10,25,09,43,5.70
2014,10,25,09,44,5.50
2014,10,25,09,45,1.80
2014,10,25,09,46,0.90
2014,10,25,09,47,4.80
2014,10,25,09,48,6.10
2014,10,25,09,49,6.20
2014,10,25,09,50,9.70
2014,10,25,09,51,13.50
2014,10,25,09,52,8.70
2014,10,25,09,53,11.00
2014,10,25,09,54,14.70
2014,10,25,09,55,14.50
2014,10,25,09,56,11.80
2014,10,25,09,57,6.10
2014,10,25,09,58,10.00
2014,10,25,09,59,7.50
2014,10,25,10,00,3.40
2014,10,25,10,01,0.90
2014,10,25,10,02,2.60
2014,10,25,10,03,6.90
2014,10,25,10,04,3.40
2014,10,25,10,05,1.50
2014,10,25,10,06,5.80
2014,10,25,10,07,8.70
2014,10,25,10,08,9.40
2014,10,25,10,09,10.50
2014,10,25,10,10,3.40
2014,10,25,10,11,3.50
2014,10,25,10,12,9.20
2014,10,25,10,13,3.20
2014,10,25,10,14,3.80
2014,10,25,10,15,0.20
2014,10,25,10,16,0.00
2014,10,25,10,17,0.10
2014,10,25,10,18,1.70
2014,10,25,10,19,0.20
2014,10,25,10,20,1.20
2014,10,25,10,21,1.20
2014,10,25,10,22,5.10
2014,10,25,10,23,9.50
2014,10,25,10,24,4.70
2014,10,25,10,25,2.20
2014,10,25,10,26,0.90
2014,10,25,10,27,0.80
2014,10,25,10,28,6.90
2014,10,25,10,29,16.80
2014,10,25,10,30,9.60
2014,10,25,10,31,8.90
2014,10,25,10,32,8.10
2014,10,25,10,33,8.90
2014,10,25,10,34,10.70
2014,10,25,10,35,3.80
2014,10,25,10,36,14.00
2014,10,25,10,37,12.50
2014,10,25,10,38,6.20
2014,10,25,10,39,6.50
2014,10,25,10,40,7.40
2014,10,25,10,41,9.10
2014,10,25,10,42,7.60
2014,10,25,10,43,17.40
2014,10,25,10,44,10.90
2014,10,25,10,45,14.30
2014,10,25,10,46,11.80
2014,10,25,10,47,7.70
2014,10,25,10,48,9.90
2014,10,25,10,49,9.10
2014,10,25,10,50,10.80
2014,10,25,10,51,8.10
2014,10,25,10,52,8.10
2014,10,25,10,53,14.70
2014,10,25,10,54,9.10
2014,10,25,10,55,7.80
2014,10,25,10,56,9.90
2014,10,25,10,57,7.70
2014,10,25,10,58,13.30
2014,10,25,10,59,10.50
2014,10,25,11,00,8.00
2014,10,25,11,01,5.30
2014,10,25,11,02,10.90
2014,10,25,11,03,9.60
2014,10,25,11,04,12.10
2014,10,25,11,05,10.40
2014,10,25,11,06,3.70
2014,10,25,11,07,3.10
2014,10,25,11,08,8.10
2014,10,25,11,09,7.00
2014,10,25,11,10,8.20
2014,10,25,11,11,8.20
2014,10,25,11,12,7.30
2014,10,25,11,13,6.40
2014,10,25,11,14,3.80
2014,10,25,11,15,7.50
2014,10,25,11,16,10.70
2014,10,25,11,17,7.50
2014,10,25,11,18,4.80
2014,10,25,11,19,4.90
2014,10,25,11,20,9.10
2014,10,25,11,21,5.60
2014,10,25,11,22,10.30
2014,10,25,11,23,8.20
2014,10,25,11,24,10.80
2014,10,25,11,25,10.60
2014,10,25,11,26,11.70
2014,10,25,11,27,9.90
2014,10,25,11,28,8.10
2014,10,25,11,29,7.60
2014,10,25,11,30,12.50
2014,10,25,11,31,7.50
2014,10,25,11,32,9.30
2014,10,25,11,33,11.00
2014,10,25,11,34,5.60
2014,10,25,11,35,9.90
2014,10,25,11,36,12.30
2014,10,25,11,37,7.50
2014,10,25,11,38,7.50
2014,10,25,11,39,9.90
2014,10,25,11,40,7.10
2014,10,25,11,41,12.80
2014,10,25,11,42,11.20
2014,10,25,11,43,11.60
2014,10,25,11,44,8.90
2014,10,25,11,45,10.50
2014,10,25,11,46,8.60
2014,10,25,11,47,8.00
2014,10,25,11,48,9.80
2014,10,25,11,49,14.30
2014,10,25,11,50,17.30
2014,10,25,11,51,10.30
2014,10,25,11,52,8.90
2014,10,25,11,53,11.30
2014,10,25,11,54,11.30
2014,10,25,11,55,5.90
2014,10,25,11,56,8.80
2014,10,25,11,57,6.60
2014,10,25,11,58,11.70
2014,10,25,11,59,15.20
2014,10,25,12,00,12.10
2014,10,25,12,01,9.70
2014,10,25,12,02,8.30
2014,10,25,12,03,4.80
2014,10,25,12,04,4.50
2014,10,25,12,05,15.10
2014,10,25,12,06,9.10
2014,10,25,12,07,5.00
2014,10,25,12,08,7.50
2014,10,25,12,09,13.80
2014,10,25,12,10,8.80
2014,10,25,12,11,9.50
2014,10,25,12,12,6.60
2014,10,25,12,13,5.40
2014,10,25,12,14,3.90
2014,10,25,12,15,10.20
2014,10,25,12,16,4.60
2014,10,25,12,17,7.80
2014,10,25,12,18,4.80
2014,10,25,12,19,9.40
2014,10,25,12,20,4.90
2014,10,25,12,21,4.30
2014,10,25,12,22,7.20
2014,10,25,12,23,9.10
2014,10,25,12,24,3.90
2014,10,25,12,25,6.10
2014,10,25,12,26,14.60
2014,10,25,12,27,6.10
2014,10,25,12,28,3.80
2014,10,25,12,29,4.20
2014,10,25,12,30,9.90
2014,10,25,12,31,3.80
2014,10,25,12,32,5.50
2014,10,25,12,33,7.30
2014,10,25,12,34,7.40
2014,10,25,12,35,5.90
2014,10,25,12,36,10.10
2014,10,25,12,37,11.00
2014,10,25,12,38,3.80
2014,10,25,12,39,10.00
2014,10,25,12,40,5.90
2014,10,25,12,41,4.10
2014,10,25,12,42,5.10
2014,10,25,12,43,9.40
2014,10,25,12,44,6.90
2014,10,25,12,45,4.30
2014,10,25,12,46,7.50
2014,10,25,12,47,10.30
2014,10,25,12,48,8.50
2014,10,25,12,49,5.10
2014,10,25,12,50,6.20
2014,10,25,12,51,8.90
2014,10,25,12,52,4.80
2014,10,25,12,53,1.40
2014,10,25,12,54,0.50
2014,10,25,12,55,0.00
2014,10,25,12,56,0.00
2014,10,25,12,57,0.20
2014,10,25,12,58,4.50
2014,10,25,12,59,1.10
2014,10,25,13,00,5.10
2014,10,25,13,01,2.60
2014,10,25,13,02,1.40
2014,10,25,13,03,3.30
2014,10,25,13,04,2.60
2014,10,25,13,05,0.50
2014,10,25,13,06,0.20
2014,10,25,13,07,0.10
2014,10,25,13,08,4.40
2014,10,25,13,09,5.30
2014,10,25,13,10,2.40
2014,10,25,13,11,4.10
2014,10,25,13,12,2.30
2014,10,25,13,13,3.10
2014,10,25,13,14,3.60
2014,10,25,13,15,2.10
2014,10,25,13,16,2.90
2014,10,25,13,17,2.10
2014,10,25,13,18,3.70
2014,10,25,13,19,0.40
2014,10,25,13,20,0.40
2014,10,25,13,21,2.20
2014,10,25,13,22,1.40
2014,10,25,13,23,1.10
2014,10,25,13,24,1.20
2014,10,25,13,25,1.90
2014,10,25,13,26,0.10
2014,10,25,13,27,2.20
2014,10,25,13,28,1.00
2014,10,25,13,29,0.90
2014,10,25,13,30,0.00
2014,10,25,13,31,0.00
2014,10,25,13,32,0.70
2014,10,25,13,33,7.50
2014,10,25,13,34,3.80
2014,10,25,13,35,0.60
2014,10,25,13,36,1.50
2014,10,25,13,37,0.50
2014,10,25,13,38,0.40
2014,10,25,13,39,2.00
2014,10,25,13,40,1.20
2014,10,25,13,41,4.10
2014,10,25,13,42,0.50
2014,10,25,13,43,0.10
2014,10,25,13,44,0.10
2014,10,25,13,45,0.00
2014,10,25,13,46,0.00
2014,10,25,13,47,0.20
2014,10,25,13,48,2.60
2014,10,25,13,49,3.70
2014,10,25,13,50,6.10
2014,10,25,13,51,4.60
2014,10,25,13,52,1.20
2014,10,25,13,53,2.50
2014,10,25,13,54,3.50
2014,10,25,13,55,2.50
2014,10,25,13,56,3.30
2014,10,25,13,57,5.30
2014,10,25,13,58,7.60
2014,10,25,13,59,8.60
2014,10,25,14,00,4.40
2014,10,25,14,01,4.50
2014,10,25,14,02,3.70
2014,10,25,14,03,1.00
2014,10,25,14,04,0.00
2014,10,25,14,05,0.00
2014,10,25,14,06,0.50
2014,10,25,14,07,0.00
2014,10,25,14,08,0.00
2014,10,25,14,09,0.00
2014,10,25,14,10,0.00
2014,10,25,14,11,0.30
2014,10,25,14,12,0.10
2014,10,25,14,13,0.00
2014,10,25,14,14,0.00
2014,10,25,14,15,0.00
2014,10,25,14,16,0.20
2014,10,25,14,17,0.20
2014,10,25,14,18,1.90
2014,10,25,14,19,0.50
2014,10,25,14,20,1.20
2014,10,25,14,21,2.80
2014,10,25,14,22,4.30
2014,10,25,14,23,3.30
2014,10,25,14,24,0.60
2014,10,25,14,25,2.60
2014,10,25,14,26,0.80
2014,10,25,14,27,0.00
2014,10,25,14,28,0.00
2014,10,25,14,29,2.40
2014,10,25,14,30,1.50
2014,10,25,14,31,3.20
2014,10,25,14,32,4.70
2014,10,25,14,33,3.60
2014,10,25,14,34,5.00
2014,10,25,14,35,5.80
2014,10,25,14,36,2.10
2014,10,25,14,37,0.10
2014,10,25,14,38,6.10
2014,10,25,14,39,5.10
2014,10,25,14,40,3.20
2014,10,25,14,41,1.90
2014,10,25,14,42,2.70
2014,10,25,14,43,3.30
2014,10,25,14,44,1.10
2014,10,25,14,45,2.90
2014,10,25,14,46,5.40
2014,10,25,14,47,5.20
2014,10,25,14,48,4.60
2014,10,25,14,49,2.70
2014,10,25,14,50,4.70
2014,10,25,14,51,2.30
2014,10,25,14,52,1.20
2014,10,25,14,53,3.40
2014,10,25,14,54,3.70
2014,10,25,14,55,1.50
2014,10,25,14,56,3.60
2014,10,25,14,57,3.70
2014,10,25,14,58,0.70
2014,10,25,14,59,0.30
2014,10,25,15,00,0.10
2014,10,25,15,01,1.90
2014,10,25,15,02,2.90
2014,10,25,15,03,0.60
2014,10,25,15,04,1.00
2014,10,25,15,05,7.50
2014,10,25,15,06,7.10
2014,10,25,15,07,1.30
2014,10,25,15,08,3.10
2014,10,25,15,09,2.30
2014,10,25,15,10,4.60
2014,10,25,15,11,4.80
2014,10,25,15,12,4.40
2014,10,25,15,13,2.10
2014,10,25,15,14,4.70
2014,10,25,15,15,5.60
2014,10,25,15,16,5.60
2014,10,25,15,17,2.30
2014,10,25,15,18,0.40
2014,10,25,15,19,5.30
2014,10,25,15,20,6.00
2014,10,25,15,21,4.30
2014,10,25,15,22,3.40
2014,10,25,15,23,5.30
2014,10,25,15,24,6.80
2014,10,25,15,25,5.30
2014,10,25,15,26,4.20
2014,10,25,15,27,4.20
2014,10,25,15,28,7.00
2014,10,25,15,29,4.20
2014,10,25,15,30,2.70
2014,10,25,15,31,8.10
2014,10,25,15,32,6.10
2014,10,25,15,33,2.10
2014,10,25,15,34,7.20
2014,10,25,15,35,5.40
2014,10,25,15,36,1.20
2014,10,25,15,37,4.50
2014,10,25,15,38,5.90
2014,10,25,15,39,3.90
2014,10,25,15,40,5.50
2014,10,25,15,41,7.20
2014,10,25,15,42,9.00
2014,10,25,15,43,6.90
2014,10,25,15,44,1.50
2014,10,25,15,45,0.00
2014,10,25,15,46,1.80
2014,10,25,15,47,7.80
2014,10,25,15,48,4.80
2014,10,25,15,49,5.40
2014,10,25,15,50,4.80
2014,10,25,15,51,4.80
2014,10,25,15,52,4.80
2014,10,25,15,53,4.80
2014,10,25,15,54,4.80
2014,10,25,15,55,4.00
2014,10,25,15,56,5.40
2014,10,25,15,57,5.80
2014,10,25,15,58,2.10
2014,10,25,15,59,2.70
2014,10,25,16,00,5.70
2014,10,25,16,01,5.60
2014,10,25,16,02,0.50
2014,10,25,16,03,2.70
2014,10,25,16,04,3.70
2014,10,25,16,05,0.60
2014,10,25,16,06,2.00
2014,10,25,16,07,4.60
2014,10,25,16,08,2.60
2014,10,25,16,09,2.30
2014,10,25,16,10,0.20
2014,10,25,16,11,0.10
2014,10,25,16,12,0.10
2014,10,25,16,13,0.30
2014,10,25,16,14,1.10
2014,10,25,16,15,3.00
2014,10,25,16,16,2.90
2014,10,25,16,17,5.10
2014,10,25,16,18,4.10
2014,10,25,16,19,0.20
2014,10,25,16,20,2.70
2014,10,25,16,21,3.80
2014,10,25,16,22,1.50
2014,10,25,16,23,0.00
2014,10,25,16,24,2.40
2014,10,25,16,25,5.10
2014,10,25,16,26,3.10
2014,10,25,16,27,2.10
2014,10,25,16,28,4.30
2014,10,25,16,29,1.30
2014,10,25,16,30,6.10
2014,10,25,16,31,1.80
2014,10,25,16,32,1.10
2014,10,25,16,33,0.20
2014,10,25,16,34,1.90
2014,10,25,16,35,2.10
2014,10,25,16,36,2.10
2014,10,25,16,37,3.60
2014,10,25,16,38,2.40
2014,10,25,16,39,4.50
2014,10,25,16,40,3.10
2014,10,25,16,41,2.10
2014,10,25,16,42,5.00
2014,10,25,16,43,2.60
2014,10,25,16,44,5.70
2014,10,25,16,45,5.30
2014,10,25,16,46,0.80
2014,10,25,16,47,2.00
2014,10,25,16,48,0.50
2014,10,25,16,49,0.40
2014,10,25,16,50,5.40
2014,10,25,16,51,2.10
2014,10,25,16,52,2.70
2014,10,25,16,53,3.80
2014,10,25,16,54,0.80
2014,10,25,16,55,2.00
2014,10,25,16,56,2.20
2014,10,25,16,57,2.90
2014,10,25,16,58,3.90
2014,10,25,16,59,5.70
2014,10,25,17,00,2.30
2014,10,25,17,01,0.40
2014,10,25,17,02,1.70
2014,10,25,17,03,1.20
2014,10,25,17,04,3.80
2014,10,25,17,05,1.70
2014,10,25,17,06,2.70
2014,10,25,17,07,2.80
2014,10,25,17,08,3.40
2014,10,25,17,09,4.30
2014,10,25,17,10,3.10
2014,10,25,17,11,2.60
2014,10,25,17,12,2.00
2014,10,25,17,13,2.20
2014,10,25,17,14,1.50
2014,10,25,17,15,3.30
2014,10,25,17,16,1.20
2014,10,25,17,17,6.90
2014,10,25,17,18,3.10
2014,10,25,17,19,4.80
2014,10,25,17,20,4.70
2014,10,25,17,21,1.40
2014,10,25,17,22,1.50
2014,10,25,17,23,2.10
2014,10,25,17,24,4.00
2014,10,25,17,25,4.80
2014,10,25,17,26,7.70
2014,10,25,17,27,6.40
2014,10,25,17,28,2.00
2014,10,25,17,29,3.50
2014,10,25,17,30,2.80
2014,10,25,17,31,0.20
2014,10,25,17,32,2.10
2014,10,25,17,33,5.40
2014,10,25,17,34,2.60
2014,10,25,17,35,2.50
2014,10,25,17,36,0.90
2014,10,25,17,37,2.50
2014,10,25,17,38,3.80
2014,10,25,17,39,2.70
2014,10,25,17,40,3.10
2014,10,25,17,41,3.50
2014,10,25,17,42,8.80
2014,10,25,17,43,4.20
2014,10,25,17,44,3.40
2014,10,25,17,45,5.10
2014,10,25,17,46,8.80
2014,10,25,17,47,4.90
2014,10,25,17,48,4.20
2014,10,25,17,49,6.70
2014,10,25,17,50,7.40
2014,10,25,17,51,3.10
2014,10,25,17,52,8.50
2014,10,25,17,53,5.10
2014,10,25,17,54,4.80
2014,10,25,17,55,8.30
2014,10,25,17,56,5.50
2014,10,25,17,57,4.00
2014,10,25,17,58,5.10
2014,10,25,17,59,8.40
2014,10,25,18,00,5.30
2014,10,25,18,01,1.90
2014,10,25,18,02,3.80
2014,10,25,18,03,8.80
2014,10,25,18,04,5.30
2014,10,25,18,05,9.40
2014,10,25,18,06,5.70
2014,10,25,18,07,7.90
2014,10,25,18,08,4.40
2014,10,25,18,09,4.40
2014,10,25,18,10,4.40
2014,10,25,18,11,5.90
2014,10,25,18,12,7.10
2014,10,25,18,13,3.00
2014,10,25,18,14,3.10
2014,10,25,18,15,0.70
2014,10,25,18,16,2.30
2014,10,25,18,17,2.50
2014,10,25,18,18,2.80
2014,10,25,18,19,2.00
2014,10,25,18,20,6.20
2014,10,25,18,21,3.50
2014,10,25,18,22,3.10
2014,10,25,18,23,5.30
2014,10,25,18,24,1.70
2014,10,25,18,25,2.80
2014,10,25,18,26,4.20
2014,10,25,18,27,2.90
2014,10,25,18,28,3.40
2014,10,25,18,29,2.00
2014,10,25,18,30,7.30